KG4QXL-2 Weather Reports


time (UTC)temp
C
wind
direction
speed
KPH
gust
KPH
rain 1hr
cm
rain 24hr
cm
rain mn
cm
humidity
%
barometer
mb
20260507151519 11 0.0 0.0 0.00 0.00 0.00 85 1006.8
20260507150518 11 0.0 0.0 0.00 0.00 0.00 85 1006.9
20260507145519 11 0.0 0.0 0.00 0.00 0.00 82 1007.2
20260507144518 11 0.0 0.0 0.00 0.00 0.00 81 1007.1
20260507143519 11 257 0.0 1.6 0.00 0.00 0.00 84 1007.2
20260507142539 11 0.0 0.0 0.00 0.00 0.00 89 1007.5
20260507141519 11 0.0 0.0 0.00 0.00 0.00 89 1007.4
20260507140519 11 0.0 3.2 0.00 0.00 0.00 93 1007.4
20260507135518 11 0.0 0.0 0.00 0.00 0.00 95 1007.5
20260507134559 11 0.0 0.0 0.00 0.00 0.00 96 1007.5
20260507133519 11 0.0 0.0 0.00 0.00 0.00 96 1007.6
20260507132538 11 0.0 0.0 0.00 0.00 0.00 95 1007.6
20260507131520 11 0.0 0.0 0.00 0.00 0.00 95 1007.3
20260507130519 11 0.0 0.0 0.00 0.00 0.00 95 1007.6
20260507125539 11 0.0 0.0 0.00 0.00 0.00 94 1007.2
20260507124539 11 0.0 0.0 0.00 0.00 0.00 96 1007.4
20260507123519 11 0.0 0.0 0.00 0.00 0.00 96 1007.4
20260507122520 11 0.0 0.0 0.00 0.00 0.00 96 1007.2
20260507121519 11 0.0 0.0 0.00 0.00 0.00 97 1007.0
20260507120519 11 0.0 0.0 0.00 0.00 0.00 98 1007.2
20260507115519 11 0.0 0.0 0.00 0.00 0.00 98 1007.4
20260507114620 11 0.0 0.0 0.00 0.00 0.00 98 1007.2
20260507113517 11 0.0 0.0 0.00 0.00 0.00 99 1006.7
20260507112516 11 0.0 0.0 0.00 0.00 0.00 98 1006.8
20260507111517 11 0.0 0.0 0.00 0.00 0.00 98 1006.9
20260507110517 11 0.0 0.0 0.00 0.00 0.00 99 1006.8
20260507105537 11 0.0 0.0 0.00 0.00 0.00 99 1006.7
20260507104537 12 0.0 0.0 0.00 0.00 0.00 99 1006.6
20260507103536 12 0.0 0.0 0.00 0.00 0.00 99 1006.5
20260507102517 12 0.0 0.0 0.00 0.00 0.00 99 1006.4
20260507101517 12 0.0 0.0 0.00 0.00 0.00 99 1006.4
20260507100517 12 0.0 0.0 0.00 0.00 0.00 99 1006.5
20260507095516 12 0.0 0.0 0.00 0.00 0.00 99 1006.3
20260507094518 12 0.0 0.0 0.00 0.00 0.00 99 1006.4
20260507093517 12 0.0 0.0 0.00 0.00 0.00 99 1006.4
20260507092517 12 0.0 0.0 0.00 0.00 0.00 99 1006.3
20260507091516 12 0.0 0.0 0.00 0.00 0.00 98 1005.9
20260507090517 12 0.0 0.0 0.00 0.00 0.00 98 1006.1
20260507085517 12 0.0 0.0 0.00 0.00 0.00 98 1006.1
20260507084517 12 0.0 0.0 0.00 0.00 0.00 98 1006.1
20260507083517 11 0.0 0.0 0.00 0.00 0.00 98 1005.9
20260507082518 12 0.0 0.0 0.00 0.00 0.00 98 1005.9
20260507081517 12 0.0 0.0 0.00 0.00 0.00 98 1005.9
20260507080517 12 0.0 0.0 0.00 0.00 0.00 98 1005.6
20260507075536 12 0.0 0.0 0.00 0.00 0.00 98 1005.3
20260507074517 12 0.0 0.0 0.00 0.00 0.00 98 1005.5
20260507073517 12 0.0 0.0 0.00 0.00 0.00 98 1005.4
20260507072516 12 0.0 0.0 0.00 0.00 0.00 98 1005.0
20260507071517 12 0.0 0.0 0.00 0.00 0.00 98 1005.1
20260507070516 12 0.0 0.0 0.00 0.00 0.00 98 1005.1
20260507065517 12 0.0 0.0 0.00 0.00 0.00 98 1005.2
20260507064517 12 0.0 0.0 0.00 0.00 0.00 98 1005.2
20260507063517 12 0.0 1.6 0.00 0.00 0.00 98 1005.1
20260507062517 12 0.0 1.6 0.00 0.00 0.00 98 1005.4
20260507061517 13 275 0.0 1.6 0.00 0.00 0.00 98 1005.2
20260507060518 13 0.0 0.0 0.00 0.00 0.00 98 1005.0
20260507055517 13 0.0 1.6 0.00 0.00 0.00 98 1004.7
20260507054518 13 0.0 0.0 0.00 0.00 0.00 98 1004.8
20260507053517 13 0.0 0.0 0.00 0.00 0.00 98 1005.3
20260507052517 13 280 0.0 1.6 0.00 0.00 0.00 98 1005.1
20260507051517 13 0.0 0.0 0.00 0.00 0.00 98 1005.1
20260507050517 13 0.0 0.0 0.00 0.00 0.00 98 1005.3
20260507045517 13 0.0 0.0 0.00 0.00 0.00 97 1004.9
20260507044517 14 0.0 0.0 0.00 0.00 0.00 97 1005.2
20260507043518 14 0.0 0.0 0.00 0.00 0.00 97 1005.4
20260507042517 15 259 0.0 3.2 0.00 0.00 0.00 96 1005.1
20260507041537 16 246 0.0 1.6 0.00 0.00 0.00 90 1005.2
20260507040517 16 301 0.0 1.6 0.00 0.00 0.00 84 1005.2
20260507035537 17 275 0.0 3.2 0.00 0.00 0.00 80 1005.0
20260507034517 17 282 0.0 3.2 0.00 0.00 0.00 82 1004.7
20260507033517 17 310 0.0 3.2 0.00 0.00 0.00 83 1004.9
20260507032516 18 279 0.0 1.6 0.00 0.00 0.00 87 1004.8
20260507031518 18 308 0.0 3.2 0.00 0.00 0.00 88 1004.5
20260507030517 18 285 0.0 1.6 0.00 0.00 0.00 91 1004.0
20260507025537 18 0.0 0.0 0.00 0.00 0.00 90 1004.0
20260507024517 18 0.0 1.6 0.00 0.00 0.00 90 1004.2
20260507023517 18 260 0.0 1.6 0.00 0.00 0.00 90 1003.9
20260507022516 18 0.0 1.6 0.00 0.00 0.00 92 1003.9
20260507021517 18 259 0.0 1.6 0.00 0.00 0.00 94 1003.6
20260507020516 18 331 0.0 3.2 0.00 0.00 0.00 96 1003.3
20260507015517 18 0.0 0.0 0.00 0.00 0.00 96 1004.0
20260507014516 18 0.0 0.0 0.00 0.00 0.00 95 1003.6
20260507013517 18 0.0 0.0 0.00 0.00 0.00 95 1003.6
20260507012517 18 0.0 0.0 0.00 0.00 0.00 95 1003.6
20260507011517 18 0.0 0.0 0.00 0.00 0.00 94 1003.8
20260507010517 18 0.0 0.0 0.00 0.00 0.00 94 1004.0
20260507005517 18 0.0 0.0 0.00 0.00 0.00 94 1003.9
20260507004517 18 0.0 0.0 0.00 0.00 0.00 94 1003.7
20260507003516 18 0.0 0.0 0.00 0.00 0.00 93 1003.7
20260507002517 19 0.0 0.0 0.00 0.00 0.00 93 1003.6
20260507001537 19 0.0 0.0 0.00 0.00 0.00 92 1003.6
20260507000517 19 0.0 1.6 0.00 0.00 0.00 92 1003.3
20260506235517 19 0.0 0.0 0.00 0.00 0.00 92 1003.2
20260506234537 19 0.0 0.0 0.00 0.00 0.00 91 1003.1
20260506233517 19 0.0 0.0 0.00 0.00 0.00 91 1002.8
20260506232517 19 0.0 0.0 0.00 0.00 0.00 90 1002.9
20260506231516 19 0.0 0.0 0.00 0.00 0.00 89 1002.8
20260506230517 20 0.0 0.0 0.00 0.00 0.00 89 1002.8
20260506225516 20 0.0 0.0 0.00 0.00 0.00 88 1002.8
20260506224517 20 0.0 0.0 0.00 0.00 0.00 88 1002.7
20260506223517 20 248 0.0 1.6 0.00 0.00 0.00 87 1002.7
20260506222517 20 0.0 0.0 0.00 0.00 0.00 86 1002.8
20260506221517 20 0.0 0.0 0.00 0.00 0.00 85 1002.9
20260506220517 20 0.0 0.0 0.00 0.00 0.00 85 1003.0
20260506215517 20 265 0.0 1.6 0.00 0.00 0.00 86 1002.9
20260506214517 20 0.0 0.0 0.00 0.00 0.00 88 1002.8
20260506213517 20 0.0 1.6 0.00 0.00 0.00 86 1002.9
20260506212518 20 0.0 1.6 0.00 0.00 0.00 85 1002.8
20260506211536 20 272 0.0 1.6 0.00 0.00 0.00 84 1002.9
20260506210537 20 246 0.0 1.6 0.00 0.00 0.00 86 1002.7
20260506205536 20 256 0.0 1.6 0.00 0.00 0.00 85 1002.7
20260506204516 20 245 0.0 1.6 0.00 0.00 0.00 85 1002.5
20260506203517 20 258 1.6 4.8 0.00 0.00 0.00 85 1002.5
20260506202537 19 258 0.0 1.6 0.00 0.00 0.00 86 1002.5
20260506201517 19 285 0.0 1.6 0.00 0.00 0.00 87 1002.5
20260506200516 19 285 0.0 1.6 0.00 0.00 0.00 87 1002.7
20260506195537 19 285 0.0 1.6 0.00 0.00 0.00 87 1002.8
20260506194517 19 250 0.0 1.6 0.00 0.00 0.00 88 1002.7
20260506193517 18 272 0.0 1.6 0.00 0.00 0.00 88 1002.9
20260506192517 18 257 0.0 1.6 0.00 0.00 0.00 90 1003.0
20260506191517 18 295 0.0 3.2 0.00 0.00 0.00 91 1003.1
20260506190517 17 257 0.0 1.6 0.00 0.00 0.00 92 1003.4
20260506185516 17 0.0 1.6 0.00 0.00 0.00 93 1003.5
20260506184517 17 260 0.0 1.6 0.00 0.00 0.00 93 1003.5
20260506183517 17 0.0 1.6 0.00 0.00 0.00 94 1003.6
20260506182517 17 280 0.0 1.6 0.00 0.00 0.00 95 1003.4
20260506181517 17 0.0 0.0 0.00 0.00 0.00 95 1003.6
20260506180516 17 0.0 0.0 0.00 0.00 0.00 94 1003.7
20260506175517 17 268 1.6 3.2 0.00 0.00 0.00 92 1003.7
20260506174517 17 264 1.6 3.2 0.00 0.00 0.00 94 1003.8
20260506173517 17 0.0 0.0 0.00 0.00 0.00 94 1003.9
20260506172517 17 0.0 0.0 0.00 0.00 0.00 94 1003.9
20260506171516 16 0.0 0.0 0.00 0.00 0.00 94 1003.9
20260506170516 16 0.0 0.0 0.00 0.00 0.00 95 1004.0
20260506165517 16 0.0 0.0 0.00 0.00 0.00 96 1004.1
20260506164517 16 0.0 0.0 0.00 0.00 0.00 97 1004.1
20260506163517 16 0.0 0.0 0.00 0.00 0.00 98 1004.3
20260506162517 16 0.0 0.0 0.00 0.00 0.00 98 1004.2
20260506161516 16 0.0 0.0 0.00 0.00 0.00 98 1004.3
20260506160517 16 0.0 0.0 0.00 0.00 0.00 98 1004.4
20260506155517 16 0.0 0.0 0.00 0.00 0.00 98 1004.4
20260506154517 16 0.0 0.0 0.00 0.00 0.00 98 1004.7
20260506153537 16 0.0 0.0 0.00 0.00 0.00 98 1004.5
20260506152517 16 0.0 0.0 0.00 0.00 0.00 98 1004.8